owner,sensor,date,latitude,longitude,air_pressure(mBar),qcFlag 
TABS,ioos:station:wmo:42043:1,2013-04-01T00:00:00Z,28.9818,-94.9186,1013.94,11111222 
TABS,ioos:station:wmo:42043:1,2013-04-01T00:30:00Z,28.9818,-94.9186,1013.83,11111222 
TABS,ioos:station:wmo:42043:1,2013-04-01T01:00:00Z,28.9818,-94.9186,1013.82,11111222 
TABS,ioos:station:wmo:42043:1,2013-04-01T01:30:00Z,28.9818,-94.9186,1013.87,11111222 
TABS,ioos:station:wmo:42043:1,2013-04-01T02:00:00Z,28.9818,-94.9186,1013.57,11111222 
TABS,ioos:station:wmo:42043:1,2013-04-01T02:30:00Z,28.9818,-94.9186,1014.17,11111222 
TABS,ioos:station:wmo:42043:1,2013-04-01T03:00:00Z,28.9818,-94.9186,1013.54,11111222 
TABS,ioos:station:wmo:42043:1,2013-04-01T03:30:00Z,28.9818,-94.9186,1013.19,11111222 
TABS,ioos:station:wmo:42043:1,2013-04-01T04:00:00Z,28.9818,-94.9186,1013.54,11111222 
TABS,ioos:station:wmo:42043:1,2013-04-01T04:30:00Z,28.9818,-94.9186,1013.79,11111222 
TABS,ioos:station:wmo:42043:1,2013-04-01T05:00:00Z,28.9818,-94.9186,1013.7,11111222 
TABS,ioos:station:wmo:42043:1,2013-04-01T05:30:00Z,28.9818,-94.9186,1013.31,11111222 
TABS,ioos:station:wmo:42043:1,2013-04-01T06:00:00Z,28.9818,-94.9186,1013.32,11111222 
TABS,ioos:station:wmo:42043:1,2013-04-01T06:30:00Z,28.9818,-94.9186,1013.63,11111222 
TABS,ioos:station:wmo:42043:1,2013-04-01T07:00:00Z,28.9818,-94.9186,1013.68,11111222 
TABS,ioos:station:wmo:42043:1,2013-04-01T07:30:00Z,28.9818,-94.9186,1014.08,11111222 
TABS,ioos:station:wmo:42043:1,2013-04-01T08:00:00Z,28.9818,-94.9186,1014.1,11111222 
TABS,ioos:station:wmo:42043:1,2013-04-01T08:30:00Z,28.9818,-94.9186,1014.39,11111222 
TABS,ioos:station:wmo:42043:1,2013-04-01T09:00:00Z,28.9818,-94.9186,1014.15,11111222 
TABS,ioos:station:wmo:42043:1,2013-04-01T09:30:00Z,28.9818,-94.9186,1014.68,11111222 
TABS,ioos:station:wmo:42043:1,2013-04-01T10:00:00Z,28.9818,-94.9186,1014.98,11111222 
TABS,ioos:station:wmo:42043:1,2013-04-01T10:30:00Z,28.9818,-94.9186,1015.35,11111222 
TABS,ioos:station:wmo:42043:1,2013-04-01T11:00:00Z,28.9818,-94.9186,1015.77,11111222 
TABS,ioos:station:wmo:42043:1,2013-04-01T11:30:00Z,28.9818,-94.9186,1016.17,11111222 
TABS,ioos:station:wmo:42043:1,2013-04-01T12:00:00Z,28.9818,-94.9186,1016.54,11111222 
TABS,ioos:station:wmo:42043:1,2013-04-01T12:30:00Z,28.9818,-94.9186,1016.88,11111222 
TABS,ioos:station:wmo:42043:1,2013-04-01T13:00:00Z,28.9818,-94.9186,1017.39,11111222 
TABS,ioos:station:wmo:42043:1,2013-04-01T13:30:00Z,28.9818,-94.9186,1017.96,11111222 
TABS,ioos:station:wmo:42043:1,2013-04-01T14:00:00Z,28.9818,-94.9186,1017.96,11111222 
TABS,ioos:station:wmo:42043:1,2013-04-01T14:30:00Z,28.9818,-94.9186,1017.96,11111222 
TABS,ioos:station:wmo:42043:1,2013-04-01T15:00:00Z,28.9818,-94.9186,1018.22,11111222 
TABS,ioos:station:wmo:42043:1,2013-04-01T15:30:00Z,28.9818,-94.9186,1018.05,11111222 
TABS,ioos:station:wmo:42043:1,2013-04-01T16:00:00Z,28.9818,-94.9186,1018.25,11111222 
TABS,ioos:station:wmo:42043:1,2013-04-01T16:30:00Z,28.9818,-94.9186,1018.09,11111222 
TABS,ioos:station:wmo:42043:1,2013-04-01T17:00:00Z,28.9818,-94.9186,1018.02,11111222 
TABS,ioos:station:wmo:42043:1,2013-04-01T17:30:00Z,28.9818,-94.9186,1017.94,11111222 
TABS,ioos:station:wmo:42043:1,2013-04-01T18:00:00Z,28.9818,-94.9186,1017.65,11111222 
TABS,ioos:station:wmo:42043:1,2013-04-01T18:30:00Z,28.9818,-94.9186,1017.33,11111222 
TABS,ioos:station:wmo:42043:1,2013-04-01T19:00:00Z,28.9818,-94.9186,1016.62,11111222 
TABS,ioos:station:wmo:42043:1,2013-04-01T19:30:00Z,28.9818,-94.9186,1016.51,11111222 
TABS,ioos:station:wmo:42043:1,2013-04-01T20:00:00Z,28.9818,-94.9186,1016.4,11111222 
TABS,ioos:station:wmo:42043:1,2013-04-01T20:30:00Z,28.9818,-94.9186,1016.23,11111222 
TABS,ioos:station:wmo:42043:1,2013-04-01T21:00:00Z,28.9818,-94.9186,1016.18,11111222 
TABS,ioos:station:wmo:42043:1,2013-04-01T21:30:00Z,28.9818,-94.9186,1015.97,11111222 
TABS,ioos:station:wmo:42043:1,2013-04-01T22:00:00Z,28.9818,-94.9186,1015.66,11111222 
TABS,ioos:station:wmo:42043:1,2013-04-01T22:30:00Z,28.9818,-94.9186,1015.53,11111222 
TABS,ioos:station:wmo:42043:1,2013-04-01T23:00:00Z,28.9818,-94.9186,1015.28,11111222 
TABS,ioos:station:wmo:42043:1,2013-04-01T23:30:00Z,28.9818,-94.9186,1015.29,11111222 
TABS,ioos:station:wmo:42043:1,2013-04-02T11:00:00Z,28.9818,-94.9186,1014.04,1111122 
TABS,ioos:station:wmo:42043:1,2013-04-02T11:30:00Z,28.9818,-94.9186,1014.02,1111122 
TABS,ioos:station:wmo:42043:1,2013-04-02T12:00:00Z,28.9818,-94.9186,1014.48,1111122 
TABS,ioos:station:wmo:42043:1,2013-04-02T12:30:00Z,28.9818,-94.9186,1015.35,1111122 
TABS,ioos:station:wmo:42043:1,2013-04-02T13:00:00Z,28.9818,-94.9186,1015.81,1111122 
TABS,ioos:station:wmo:42043:1,2013-04-02T13:30:00Z,28.9818,-94.9186,1016.67,1111122 
TABS,ioos:station:wmo:42043:1,2013-04-02T14:00:00Z,28.9818,-94.9186,1015.93,1111122 
TABS,ioos:station:wmo:42043:1,2013-04-02T14:30:00Z,28.9818,-94.9186,1015.84,1111122 
TABS,ioos:station:wmo:42043:1,2013-04-02T15:00:00Z,28.9818,-94.9186,1015.8,1111122 
TABS,ioos:station:wmo:42043:1,2013-04-02T15:30:00Z,28.9818,-94.9186,1015.21,1111122 
TABS,ioos:station:wmo:42043:1,2013-04-02T16:00:00Z,28.9818,-94.9186,1014.74,1111122 
TABS,ioos:station:wmo:42043:1,2013-04-02T16:30:00Z,28.9818,-94.9186,1015.59,1111122 
TABS,ioos:station:wmo:42043:1,2013-04-02T17:00:00Z,28.9818,-94.9186,1015.52,1111122 
TABS,ioos:station:wmo:42043:1,2013-04-02T17:30:00Z,28.9818,-94.9186,1015.34,1111122 
TABS,ioos:station:wmo:42043:1,2013-04-02T18:00:00Z,28.9818,-94.9186,1014.84,1111122 
TABS,ioos:station:wmo:42043:1,2013-04-02T18:30:00Z,28.9818,-94.9186,1014.11,1111122 
TABS,ioos:station:wmo:42043:1,2013-04-02T19:00:00Z,28.9818,-94.9186,1013.97,1111122 
TABS,ioos:station:wmo:42043:1,2013-04-02T19:30:00Z,28.9818,-94.9186,1014.02,1111122 
TABS,ioos:station:wmo:42043:1,2013-04-02T20:00:00Z,28.9818,-94.9186,1013.58,1111122 
TABS,ioos:station:wmo:42043:1,2013-04-02T20:30:00Z,28.9818,-94.9186,1013.7,1111122 
TABS,ioos:station:wmo:42043:1,2013-04-02T21:00:00Z,28.9818,-94.9186,1012.65,1111122 
TABS,ioos:station:wmo:42043:1,2013-04-02T21:30:00Z,28.9818,-94.9186,1012.36,1111122 
TABS,ioos:station:wmo:42043:1,2013-04-02T22:00:00Z,28.9818,-94.9186,1011.84,1111122 
TABS,ioos:station:wmo:42043:1,2013-04-02T22:30:00Z,28.9818,-94.9186,1011.42,1111122 
TABS,ioos:station:wmo:42043:1,2013-04-02T23:00:00Z,28.9818,-94.9186,1011.05,1111122 
TABS,ioos:station:wmo:42043:1,2013-04-02T23:30:00Z,28.9818,-94.9186,1010.81,1111122 
TABS,ioos:station:wmo:42043:1,2013-04-03T00:00:00Z,28.9818,-94.9186,1011.12,11111222 
TABS,ioos:station:wmo:42043:1,2013-04-03T00:30:00Z,28.9818,-94.9186,1010.98,11111222 
TABS,ioos:station:wmo:42043:1,2013-04-03T01:00:00Z,28.9818,-94.9186,1009.93,11111222 
TABS,ioos:station:wmo:42043:1,2013-04-03T01:30:00Z,28.9818,-94.9186,1010.32,11111222 
TABS,ioos:station:wmo:42043:1,2013-04-03T02:00:00Z,28.9818,-94.9186,1010.41,11111222 
TABS,ioos:station:wmo:42043:1,2013-04-03T02:30:00Z,28.9818,-94.9186,1010.46,11111222 
TABS,ioos:station:wmo:42043:1,2013-04-03T03:00:00Z,28.9818,-94.9186,1010.26,11111222 
TABS,ioos:station:wmo:42043:1,2013-04-03T03:30:00Z,28.9818,-94.9186,1009.09,11111222 
TABS,ioos:station:wmo:42043:1,2013-04-03T04:00:00Z,28.9818,-94.9186,1010.22,11111222 
TABS,ioos:station:wmo:42043:1,2013-04-03T04:30:00Z,28.9818,-94.9186,1011.09,11111222 
TABS,ioos:station:wmo:42043:1,2013-04-03T05:00:00Z,28.9818,-94.9186,1011.84,11111222 
TABS,ioos:station:wmo:42043:1,2013-04-03T05:30:00Z,28.9818,-94.9186,1009.48,11111222 
TABS,ioos:station:wmo:42043:1,2013-04-03T06:00:00Z,28.9818,-94.9186,1008.8,11111222 
TABS,ioos:station:wmo:42043:1,2013-04-03T06:30:00Z,28.9818,-94.9186,1009.55,11111222 
TABS,ioos:station:wmo:42043:1,2013-04-03T07:00:00Z,28.9818,-94.9186,1010.03,11111222 
TABS,ioos:station:wmo:42043:1,2013-04-03T07:30:00Z,28.9818,-94.9186,1010.55,11111222 
TABS,ioos:station:wmo:42043:1,2013-04-03T08:00:00Z,28.9818,-94.9186,1009.09,11111222 
TABS,ioos:station:wmo:42043:1,2013-04-03T08:30:00Z,28.9818,-94.9186,1011.64,11111222 
TABS,ioos:station:wmo:42043:1,2013-04-03T09:00:00Z,28.9818,-94.9186,1011.8,11111222 
TABS,ioos:station:wmo:42043:1,2013-04-03T09:30:00Z,28.9818,-94.9186,1011.14,11111222 
TABS,ioos:station:wmo:42043:1,2013-04-03T10:00:00Z,28.9818,-94.9186,1009.93,11111222 
TABS,ioos:station:wmo:42043:1,2013-04-03T10:30:00Z,28.9818,-94.9186,1007.45,11111222 
TABS,ioos:station:wmo:42043:1,2013-04-03T11:00:00Z,28.9818,-94.9186,1007.71,11111222 
TABS,ioos:station:wmo:42043:1,2013-04-03T11:30:00Z,28.9818,-94.9186,1009.26,11111222 
TABS,ioos:station:wmo:42043:1,2013-04-03T12:00:00Z,28.9818,-94.9186,1010.0,11111222 
TABS,ioos:station:wmo:42043:1,2013-04-03T12:30:00Z,28.9818,-94.9186,1010.72,11111222 
TABS,ioos:station:wmo:42043:1,2013-04-03T13:00:00Z,28.9818,-94.9186,1010.92,11111222 
TABS,ioos:station:wmo:42043:1,2013-04-03T13:30:00Z,28.9818,-94.9186,1011.57,11111222 
TABS,ioos:station:wmo:42043:1,2013-04-03T14:00:00Z,28.9818,-94.9186,1011.65,11111222 
TABS,ioos:station:wmo:42043:1,2013-04-03T14:30:00Z,28.9818,-94.9186,1012.0,11111222 
TABS,ioos:station:wmo:42043:1,2013-04-03T15:00:00Z,28.9818,-94.9186,1012.78,11111222 
TABS,ioos:station:wmo:42043:1,2013-04-03T15:30:00Z,28.9818,-94.9186,1012.71,11111222 
TABS,ioos:station:wmo:42043:1,2013-04-03T16:00:00Z,28.9818,-94.9186,1013.19,11111222 
TABS,ioos:station:wmo:42043:1,2013-04-03T16:30:00Z,28.9818,-94.9186,1013.28,11111222 
TABS,ioos:station:wmo:42043:1,2013-04-03T17:00:00Z,28.9818,-94.9186,1013.14,11111222 
TABS,ioos:station:wmo:42043:1,2013-04-03T17:30:00Z,28.9818,-94.9186,1013.12,11111222 
TABS,ioos:station:wmo:42043:1,2013-04-03T18:00:00Z,28.9818,-94.9186,1013.02,11111222 
TABS,ioos:station:wmo:42043:1,2013-04-03T18:30:00Z,28.9818,-94.9186,1012.73,11111222 
TABS,ioos:station:wmo:42043:1,2013-04-03T19:00:00Z,28.9818,-94.9186,1012.46,11111222 
TABS,ioos:station:wmo:42043:1,2013-04-03T19:30:00Z,28.9818,-94.9186,1012.76,11111222 
TABS,ioos:station:wmo:42043:1,2013-04-03T20:00:00Z,28.9818,-94.9186,1012.87,11111222 
TABS,ioos:station:wmo:42043:1,2013-04-03T20:30:00Z,28.9818,-94.9186,1012.85,11111222 
TABS,ioos:station:wmo:42043:1,2013-04-03T21:00:00Z,28.9818,-94.9186,1013.36,11111222 
TABS,ioos:station:wmo:42043:1,2013-04-03T21:30:00Z,28.9818,-94.9186,1012.66,11111222 
TABS,ioos:station:wmo:42043:1,2013-04-03T22:00:00Z,28.9818,-94.9186,1012.2,11111222 
TABS,ioos:station:wmo:42043:1,2013-04-03T22:30:00Z,28.9818,-94.9186,1012.51,11111222 
TABS,ioos:station:wmo:42043:1,2013-04-03T23:00:00Z,28.9818,-94.9186,1012.06,11111222 
TABS,ioos:station:wmo:42043:1,2013-04-03T23:30:00Z,28.9818,-94.9186,1013.21,11111222 
TABS,ioos:station:wmo:42043:1,2013-04-04T00:00:00Z,28.9818,-94.9186,1014.42,11111222 
TABS,ioos:station:wmo:42043:1,2013-04-04T00:30:00Z,28.9818,-94.9186,1014.35,11111222 
TABS,ioos:station:wmo:42043:1,2013-04-04T01:00:00Z,28.9818,-94.9186,1013.73,11111222 
TABS,ioos:station:wmo:42043:1,2013-04-04T01:30:00Z,28.9818,-94.9186,1014.19,11111222 
TABS,ioos:station:wmo:42043:1,2013-04-04T02:00:00Z,28.9818,-94.9186,1015.06,11111222 
TABS,ioos:station:wmo:42043:1,2013-04-04T02:30:00Z,28.9818,-94.9186,1016.75,11111222 
TABS,ioos:station:wmo:42043:1,2013-04-04T03:00:00Z,28.9818,-94.9186,1016.64,11111222 
TABS,ioos:station:wmo:42043:1,2013-04-04T03:30:00Z,28.9818,-94.9186,1018.22,11111222 
TABS,ioos:station:wmo:42043:1,2013-04-04T04:00:00Z,28.9818,-94.9186,1017.57,11111222 
TABS,ioos:station:wmo:42043:1,2013-04-04T04:30:00Z,28.9818,-94.9186,1018.08,11111222 
TABS,ioos:station:wmo:42043:1,2013-04-04T05:00:00Z,28.9818,-94.9186,1017.88,11111222 
TABS,ioos:station:wmo:42043:1,2013-04-04T05:30:00Z,28.9818,-94.9186,1017.45,11111222 
TABS,ioos:station:wmo:42043:1,2013-04-04T06:00:00Z,28.9818,-94.9186,1017.27,11111222 
TABS,ioos:station:wmo:42043:1,2013-04-04T06:30:00Z,28.9818,-94.9186,1017.39,11111222 
TABS,ioos:station:wmo:42043:1,2013-04-04T07:00:00Z,28.9818,-94.9186,1017.37,11111222 
TABS,ioos:station:wmo:42043:1,2013-04-04T07:30:00Z,28.9818,-94.9186,1017.25,11111222 
TABS,ioos:station:wmo:42043:1,2013-04-04T08:00:00Z,28.9818,-94.9186,1017.04,11111222 
TABS,ioos:station:wmo:42043:1,2013-04-04T08:30:00Z,28.9818,-94.9186,1016.73,11111222 
TABS,ioos:station:wmo:42043:1,2013-04-04T09:00:00Z,28.9818,-94.9186,1016.36,11111222 
TABS,ioos:station:wmo:42043:1,2013-04-04T09:30:00Z,28.9818,-94.9186,1016.33,11111222 
TABS,ioos:station:wmo:42043:1,2013-04-04T10:00:00Z,28.9818,-94.9186,1016.69,11111222 
TABS,ioos:station:wmo:42043:1,2013-04-04T10:30:00Z,28.9818,-94.9186,1017.13,11111222 
TABS,ioos:station:wmo:42043:1,2013-04-04T11:00:00Z,28.9818,-94.9186,1017.52,11111222 
TABS,ioos:station:wmo:42043:1,2013-04-04T11:30:00Z,28.9818,-94.9186,1017.81,11111222 
TABS,ioos:station:wmo:42043:1,2013-04-04T12:00:00Z,28.9818,-94.9186,1018.51,11111222 
TABS,ioos:station:wmo:42043:1,2013-04-04T12:30:00Z,28.9818,-94.9186,1018.8,11111222 
TABS,ioos:station:wmo:42043:1,2013-04-04T13:00:00Z,28.9818,-94.9186,1018.91,11111222 
TABS,ioos:station:wmo:42043:1,2013-04-04T13:30:00Z,28.9818,-94.9186,1018.81,11111222 
TABS,ioos:station:wmo:42043:1,2013-04-04T14:00:00Z,28.9818,-94.9186,1019.24,11111222 
TABS,ioos:station:wmo:42043:1,2013-04-04T14:30:00Z,28.9818,-94.9186,1019.69,11111222 
TABS,ioos:station:wmo:42043:1,2013-04-04T15:00:00Z,28.9818,-94.9186,1019.67,11111222 
TABS,ioos:station:wmo:42043:1,2013-04-04T15:30:00Z,28.9818,-94.9186,1020.08,11111222 
TABS,ioos:station:wmo:42043:1,2013-04-04T16:00:00Z,28.9818,-94.9186,1020.1,11111222 
TABS,ioos:station:wmo:42043:1,2013-04-04T16:30:00Z,28.9818,-94.9186,1020.19,11111222 
TABS,ioos:station:wmo:42043:1,2013-04-04T17:00:00Z,28.9818,-94.9186,1020.03,11111222 
TABS,ioos:station:wmo:42043:1,2013-04-04T17:30:00Z,28.9818,-94.9186,1019.8,11111222 
TABS,ioos:station:wmo:42043:1,2013-04-04T18:00:00Z,28.9818,-94.9186,1019.49,11111222 
TABS,ioos:station:wmo:42043:1,2013-04-04T18:30:00Z,28.9818,-94.9186,1019.31,11111222 
TABS,ioos:station:wmo:42043:1,2013-04-04T19:00:00Z,28.9818,-94.9186,1018.76,11111222 
TABS,ioos:station:wmo:42043:1,2013-04-04T19:30:00Z,28.9818,-94.9186,1018.0,11111222 
TABS,ioos:station:wmo:42043:1,2013-04-04T20:00:00Z,28.9818,-94.9186,1017.82,11111222 
TABS,ioos:station:wmo:42043:1,2013-04-04T20:30:00Z,28.9818,-94.9186,1017.63,11111222 
TABS,ioos:station:wmo:42043:1,2013-04-04T21:00:00Z,28.9818,-94.9186,1017.45,11111222 
TABS,ioos:station:wmo:42043:1,2013-04-04T21:30:00Z,28.9818,-94.9186,1017.57,11111222 
TABS,ioos:station:wmo:42043:1,2013-04-04T22:00:00Z,28.9818,-94.9186,1017.86,11111222 
TABS,ioos:station:wmo:42043:1,2013-04-04T22:30:00Z,28.9818,-94.9186,1017.92,11111222 
TABS,ioos:station:wmo:42043:1,2013-04-04T23:00:00Z,28.9818,-94.9186,1017.54,11111222 
TABS,ioos:station:wmo:42043:1,2013-04-04T23:30:00Z,28.9818,-94.9186,1018.01,11111222 
TABS,ioos:station:wmo:42043:1,2013-04-05T00:00:00Z,28.9818,-94.9186,1018.23,11111222 
TABS,ioos:station:wmo:42043:1,2013-04-05T00:30:00Z,28.9818,-94.9186,1018.66,11111222 
TABS,ioos:station:wmo:42043:1,2013-04-05T01:00:00Z,28.9818,-94.9186,1019.11,11111222 
TABS,ioos:station:wmo:42043:1,2013-04-05T01:30:00Z,28.9818,-94.9186,1019.43,11111222 
TABS,ioos:station:wmo:42043:1,2013-04-05T02:00:00Z,28.9818,-94.9186,1020.09,11111222 
TABS,ioos:station:wmo:42043:1,2013-04-05T02:30:00Z,28.9818,-94.9186,1020.27,11111222 
TABS,ioos:station:wmo:42043:1,2013-04-05T03:00:00Z,28.9818,-94.9186,1020.88,11111222 
TABS,ioos:station:wmo:42043:1,2013-04-05T03:30:00Z,28.9818,-94.9186,1020.79,11111222 
TABS,ioos:station:wmo:42043:1,2013-04-05T04:00:00Z,28.9818,-94.9186,1021.24,11111222 
TABS,ioos:station:wmo:42043:1,2013-04-05T04:30:00Z,28.9818,-94.9186,1021.42,11111222 
TABS,ioos:station:wmo:42043:1,2013-04-05T05:00:00Z,28.9818,-94.9186,1021.27,11111222 
TABS,ioos:station:wmo:42043:1,2013-04-05T05:30:00Z,28.9818,-94.9186,1021.5,11111222 
TABS,ioos:station:wmo:42043:1,2013-04-05T06:00:00Z,28.9818,-94.9186,1021.44,11111222 
TABS,ioos:station:wmo:42043:1,2013-04-05T06:30:00Z,28.9818,-94.9186,1021.44,11111222 
TABS,ioos:station:wmo:42043:1,2013-04-05T07:00:00Z,28.9818,-94.9186,1021.47,11111222 
TABS,ioos:station:wmo:42043:1,2013-04-05T07:30:00Z,28.9818,-94.9186,1021.54,11111222 
TABS,ioos:station:wmo:42043:1,2013-04-05T08:00:00Z,28.9818,-94.9186,1021.72,11111222 
TABS,ioos:station:wmo:42043:1,2013-04-05T08:30:00Z,28.9818,-94.9186,1021.35,11111222 
TABS,ioos:station:wmo:42043:1,2013-04-05T09:00:00Z,28.9818,-94.9186,1021.14,11111222 
TABS,ioos:station:wmo:42043:1,2013-04-05T09:30:00Z,28.9818,-94.9186,1021.26,11111222 
TABS,ioos:station:wmo:42043:1,2013-04-05T10:00:00Z,28.9818,-94.9186,1021.41,11111222 
TABS,ioos:station:wmo:42043:1,2013-04-05T10:30:00Z,28.9818,-94.9186,1021.41,11111222 
TABS,ioos:station:wmo:42043:1,2013-04-05T11:00:00Z,28.9818,-94.9186,1021.39,11111222 
TABS,ioos:station:wmo:42043:1,2013-04-05T11:30:00Z,28.9818,-94.9186,1022.2,11111222 
TABS,ioos:station:wmo:42043:1,2013-04-05T12:00:00Z,28.9818,-94.9186,1022.86,11111222 
TABS,ioos:station:wmo:42043:1,2013-04-05T12:30:00Z,28.9818,-94.9186,1023.55,11111222 
TABS,ioos:station:wmo:42043:1,2013-04-05T13:00:00Z,28.9818,-94.9186,1023.92,11111222 
TABS,ioos:station:wmo:42043:1,2013-04-05T13:30:00Z,28.9818,-94.9186,1023.94,11111222 
TABS,ioos:station:wmo:42043:1,2013-04-05T14:00:00Z,28.9818,-94.9186,1023.84,11111222 
TABS,ioos:station:wmo:42043:1,2013-04-05T14:30:00Z,28.9818,-94.9186,1023.8,11111222 
TABS,ioos:station:wmo:42043:1,2013-04-05T15:00:00Z,28.9818,-94.9186,1023.79,11111222 
TABS,ioos:station:wmo:42043:1,2013-04-05T15:30:00Z,28.9818,-94.9186,1024.17,11111222 
TABS,ioos:station:wmo:42043:1,2013-04-05T16:00:00Z,28.9818,-94.9186,1024.63,11111222 
TABS,ioos:station:wmo:42043:1,2013-04-05T16:30:00Z,28.9818,-94.9186,1024.7,11111222 
TABS,ioos:station:wmo:42043:1,2013-04-05T17:00:00Z,28.9818,-94.9186,1024.44,11111222 
TABS,ioos:station:wmo:42043:1,2013-04-05T17:30:00Z,28.9818,-94.9186,1024.35,11111222 
TABS,ioos:station:wmo:42043:1,2013-04-05T18:00:00Z,28.9818,-94.9186,1023.94,11111222 
TABS,ioos:station:wmo:42043:1,2013-04-05T18:30:00Z,28.9818,-94.9186,1023.45,11111222 
TABS,ioos:station:wmo:42043:1,2013-04-05T19:00:00Z,28.9818,-94.9186,1022.77,11111222 
TABS,ioos:station:wmo:42043:1,2013-04-05T19:30:00Z,28.9818,-94.9186,1022.18,11111222 
TABS,ioos:station:wmo:42043:1,2013-04-05T20:00:00Z,28.9818,-94.9186,1021.84,11111222 
TABS,ioos:station:wmo:42043:1,2013-04-05T20:30:00Z,28.9818,-94.9186,1021.52,11111222 
TABS,ioos:station:wmo:42043:1,2013-04-05T21:00:00Z,28.9818,-94.9186,1021.2,11111222 
TABS,ioos:station:wmo:42043:1,2013-04-05T21:30:00Z,28.9818,-94.9186,1020.96,11111222 
TABS,ioos:station:wmo:42043:1,2013-04-05T22:00:00Z,28.9818,-94.9186,1020.67,11111222 
TABS,ioos:station:wmo:42043:1,2013-04-05T22:30:00Z,28.9818,-94.9186,1020.08,11111222 
TABS,ioos:station:wmo:42043:1,2013-04-05T23:00:00Z,28.9818,-94.9186,1019.85,11111222 
TABS,ioos:station:wmo:42043:1,2013-04-05T23:30:00Z,28.9818,-94.9186,1019.76,11111222 
TABS,ioos:station:wmo:42043:1,2013-04-06T00:00:00Z,28.9818,-94.9186,1019.86,11111222 
TABS,ioos:station:wmo:42043:1,2013-04-06T00:30:00Z,28.9818,-94.9186,1019.75,11111222 
TABS,ioos:station:wmo:42043:1,2013-04-06T01:00:00Z,28.9818,-94.9186,1019.79,11111222 
TABS,ioos:station:wmo:42043:1,2013-04-06T01:30:00Z,28.9818,-94.9186,1019.84,11111222 
TABS,ioos:station:wmo:42043:1,2013-04-06T02:00:00Z,28.9818,-94.9186,1020.19,11111222 
TABS,ioos:station:wmo:42043:1,2013-04-06T02:30:00Z,28.9818,-94.9186,1020.47,11111222 
TABS,ioos:station:wmo:42043:1,2013-04-06T03:00:00Z,28.9818,-94.9186,1020.45,11111222 
TABS,ioos:station:wmo:42043:1,2013-04-06T03:30:00Z,28.9818,-94.9186,1020.65,11111222 
TABS,ioos:station:wmo:42043:1,2013-04-06T04:00:00Z,28.9818,-94.9186,1020.62,11111222 
TABS,ioos:station:wmo:42043:1,2013-04-06T04:30:00Z,28.9818,-94.9186,1020.22,11111222 
TABS,ioos:station:wmo:42043:1,2013-04-06T05:00:00Z,28.9818,-94.9186,1019.86,11111222 
TABS,ioos:station:wmo:42043:1,2013-04-06T05:30:00Z,28.9818,-94.9186,1020.26,11111222 
TABS,ioos:station:wmo:42043:1,2013-04-06T06:00:00Z,28.9818,-94.9186,1019.87,11111222 
TABS,ioos:station:wmo:42043:1,2013-04-06T06:30:00Z,28.9818,-94.9186,1019.39,11111222 
TABS,ioos:station:wmo:42043:1,2013-04-06T07:00:00Z,28.9818,-94.9186,1019.31,11111222 
TABS,ioos:station:wmo:42043:1,2013-04-06T07:30:00Z,28.9818,-94.9186,1018.73,11111222 
TABS,ioos:station:wmo:42043:1,2013-04-06T08:00:00Z,28.9818,-94.9186,1018.48,11111222 
TABS,ioos:station:wmo:42043:1,2013-04-06T08:30:00Z,28.9818,-94.9186,1018.03,11111222 
TABS,ioos:station:wmo:42043:1,2013-04-06T09:00:00Z,28.9818,-94.9186,1017.23,11111222 
TABS,ioos:station:wmo:42043:1,2013-04-06T09:30:00Z,28.9818,-94.9186,1016.99,11111222 
TABS,ioos:station:wmo:42043:1,2013-04-06T10:00:00Z,28.9818,-94.9186,1016.91,11111222 
TABS,ioos:station:wmo:42043:1,2013-04-06T10:30:00Z,28.9818,-94.9186,1017.08,11111222 
TABS,ioos:station:wmo:42043:1,2013-04-06T11:00:00Z,28.9818,-94.9186,1017.53,11111222 
TABS,ioos:station:wmo:42043:1,2013-04-06T11:30:00Z,28.9818,-94.9186,1017.59,11111222 
TABS,ioos:station:wmo:42043:1,2013-04-06T12:00:00Z,28.9818,-94.9186,1017.78,11111222 
TABS,ioos:station:wmo:42043:1,2013-04-06T12:30:00Z,28.9818,-94.9186,1017.91,11111222 
TABS,ioos:station:wmo:42043:1,2013-04-06T13:00:00Z,28.9818,-94.9186,1018.3,11111222 
TABS,ioos:station:wmo:42043:1,2013-04-06T13:30:00Z,28.9818,-94.9186,1018.45,11111222 
TABS,ioos:station:wmo:42043:1,2013-04-06T14:00:00Z,28.9818,-94.9186,1018.73,11111222 
TABS,ioos:station:wmo:42043:1,2013-04-06T14:30:00Z,28.9818,-94.9186,1018.58,11111222 
TABS,ioos:station:wmo:42043:1,2013-04-06T15:00:00Z,28.9818,-94.9186,1019.04,11111222 
TABS,ioos:station:wmo:42043:1,2013-04-06T15:30:00Z,28.9818,-94.9186,1018.87,11111222 
TABS,ioos:station:wmo:42043:1,2013-04-06T16:00:00Z,28.9818,-94.9186,1019.04,11111222 
TABS,ioos:station:wmo:42043:1,2013-04-06T16:30:00Z,28.9818,-94.9186,1019.08,11111222 
TABS,ioos:station:wmo:42043:1,2013-04-06T17:00:00Z,28.9818,-94.9186,1019.1,11111222 
TABS,ioos:station:wmo:42043:1,2013-04-06T17:30:00Z,28.9818,-94.9186,1018.7,11111222 
TABS,ioos:station:wmo:42043:1,2013-04-06T18:00:00Z,28.9818,-94.9186,1018.36,11111222 
TABS,ioos:station:wmo:42043:1,2013-04-06T18:30:00Z,28.9818,-94.9186,1018.08,11111222 
TABS,ioos:station:wmo:42043:1,2013-04-06T19:00:00Z,28.9818,-94.9186,1017.41,11111222 
TABS,ioos:station:wmo:42043:1,2013-04-06T19:30:00Z,28.9818,-94.9186,1017.18,11111222 
TABS,ioos:station:wmo:42043:1,2013-04-06T20:00:00Z,28.9818,-94.9186,1017.02,11111222 
TABS,ioos:station:wmo:42043:1,2013-04-06T20:30:00Z,28.9818,-94.9186,1016.48,11111222 
TABS,ioos:station:wmo:42043:1,2013-04-06T21:00:00Z,28.9818,-94.9186,1016.03,11111222 
TABS,ioos:station:wmo:42043:1,2013-04-06T21:30:00Z,28.9818,-94.9186,1015.82,11111222 
TABS,ioos:station:wmo:42043:1,2013-04-06T22:00:00Z,28.9818,-94.9186,1015.54,11111222 
TABS,ioos:station:wmo:42043:1,2013-04-06T22:30:00Z,28.9818,-94.9186,1015.46,11111222 
TABS,ioos:station:wmo:42043:1,2013-04-06T23:00:00Z,28.9818,-94.9186,1015.24,11111222 
TABS,ioos:station:wmo:42043:1,2013-04-06T23:30:00Z,28.9818,-94.9186,1015.22,11111222 
TABS,ioos:station:wmo:42043:1,2013-04-07T00:00:00Z,28.9818,-94.9186,1015.3,11111222 
TABS,ioos:station:wmo:42043:1,2013-04-07T00:30:00Z,28.9818,-94.9186,1015.32,11111222 
TABS,ioos:station:wmo:42043:1,2013-04-07T01:00:00Z,28.9818,-94.9186,1015.2,11111222 
TABS,ioos:station:wmo:42043:1,2013-04-07T01:30:00Z,28.9818,-94.9186,1015.15,11111222 
TABS,ioos:station:wmo:42043:1,2013-04-07T02:00:00Z,28.9818,-94.9186,1015.14,11111222 
TABS,ioos:station:wmo:42043:1,2013-04-07T02:30:00Z,28.9818,-94.9186,1015.49,11111222 
TABS,ioos:station:wmo:42043:1,2013-04-07T03:00:00Z,28.9818,-94.9186,1015.53,11111222 
TABS,ioos:station:wmo:42043:1,2013-04-07T03:30:00Z,28.9818,-94.9186,1015.63,11111222 
TABS,ioos:station:wmo:42043:1,2013-04-07T04:00:00Z,28.9818,-94.9186,1015.47,11111222 
TABS,ioos:station:wmo:42043:1,2013-04-07T04:30:00Z,28.9818,-94.9186,1015.05,11111222 
TABS,ioos:station:wmo:42043:1,2013-04-07T05:00:00Z,28.9818,-94.9186,1015.2,11111222 
TABS,ioos:station:wmo:42043:1,2013-04-07T05:30:00Z,28.9818,-94.9186,1015.11,11111222 